Location: Newark
(42.8481°N, 0.4872°E)
Time: 23:24:35
(UTC+00:00)

Vanguard 3 - Pass Details

Date: 28 October 2020
Orbit: 508 x 3262 km, 33.3° (Epoch: 29 November)

Event Time Altitude Azimuth Distance (km) Brightness Sun altitude
Rises 02:32:59 0° 187° (S) 5,699 - -42.8°
Exits shadow 02:36:53 - 175° (S) 5,246 11.1 -42.2°
Reaches altitude 10° 02:38:01 10° 171° (S) 5,146 11.1 -42.0°
Maximum altitude 02:48:06 20° 132° (SE) 4,998 11.3 -40.3°
Drops below altitude 10° 02:59:54 10° 94° (E) 6,187 12.2 -38.3°
Sets 03:06:47 0° 81° (E) 7,210 12.9 -37.1°
